Probability
0 0 0 0 0 0 0 0 0 0 0 0 0 0 0 0 0 0 0 0 0 0 0 0 0 0 0 0 0 0 0 0 0 0 0 0 0 0 0 0 0 0 0
0 0 0 0 0 0 0 0 0 0 0 0 0 0 0 0 0 0 0 0 0 0 0 0 0 0 0 0 0 0 0 0 0 0 0 0 0 0 0 0 0 0 0
0 0 0 0 0 0 0 0 0 0 0 0 0 0 0 0 0 0 0 0 0 0 0 0 0 0 0 0 0 0 0 0 0 0 0 0 0 0 0 0 0 0 0
0 0 0 0 0 0 0 0 0 0 0 0 0 0 0 0 0 0 0 0 0 0 0 0 0 0 0 0 0 0 0 0 0 0 0 0 0 0 0 0 0 0 0
0 0 0 0 0 0 0 0 0 0 0 0 0 0 0 0 0 0 0 0 0 0 0 0 0 0 0 0 0 0 0 0 0 0 0 0 0 0 0 0 0 0 0
0 0 0 0 0 0 0 0 0 0 0 0 0 0 0 0 0 0 0 0 0 0 0 0 0 0 0 0 0 0 0 0 0 0 0 0 0 0 0 0 0 0 0
0 0 0 0 0 0 0 0 0 0 0 0 0 0 0 0 0 0 0 0 0 0 0 0 0 0 0 0 0 0 0 0 0 0 0 0 0 0 0 0 0 0 0
0 0 0 0 0 0 0 0 0 0 0 0 0 0 0 0 0 0 0 0 0 0 0 0 0 0 0 0 0 0 0 0 0 0 0 0 0 0 0 0 0 0 0
0 0 0 0 0 0 0 0 0 0 0 0 0 0 0 0 0 0 0 0 0 0 0 0 0 0 0 0 0 0 0 0 0 0 0 0 0 0 0 0 0 0 0
0 0 0 0 0 0 0 0 0 0 0 0 0 0 0 0 0 0 0 0 0 0 0 0 0 0 0 0 0 0 0 0 0 0 0 0 0 0 0 0 0 0 0
0 0 0 0 0 0 0 0 0 0 0 0 0 0 0 0 0 0 0 0 0 0 0 0 0 0 0 0 0 0 0 0 0 0 0 0 0 0 0 0 0 0 0
0 0 0 0 0 0 0 0 0 0 0 0 0 0 0 0 0 0 0 0 0 0 0 0 0 0 0 0 0 0 0 0 0 0 0 0 0 0 0 0 0 0 0
0 0 0 0 0 0 0 0 0 0 0 0 0 0 0 0 0 0 0 0 0 0 0 0 0 0 0 0 0 0 0 0 0 0 0 0 0 0 0 0 0 0 0
0 0 0 0 0 0 0 0 0 0 0 0 0 0 0 0 0 0 0 0 0 0 0 0 0 0 0 0 0 0 0 0 0 0 0 0 0 0 0 0 0 0 0
0 0 0 0 0 0 0 0 0 0 0 0 0 0 0 0 0 0 0 0 0 0 0 0 0 0 0 0 0 0 0 0 0 0 0 0 0 0 0 0 0 0 0
0 0 0 0 0 0 0 0 0 0 0 0 0 0 0 0 0 0 0 0 0 0 0 0 0 0 0 0 0 0 0 0 0 0 0 0 0 0 0 0 0 0 0
0 0 0 0 0 0 0 0 0 0 0 0 0 0 0 0 0 0 0 0 0 0 0 0 0 0 0 0 0 0 0 0 0 0 0 0 0 0 0 0 0 0 0
0 0 0 0 0 0 0 0 0 0 0 0 0 0 0 0 0 0 0 0 0 0 0 0 0 0 0 0 0 0 0 0 0 0 0 0 0 0 0 0 0 0 0
0 0 0 0 0 0 0 0 0 0 0 0 0 0 0 0 0 0 0 0 0 0 0 0 0 0 0 0 0 0 0 0 0 0 0 0 0 0 0 0 0 0 0
0 0 0 0 0 0 0 0 0 0 0 0 0 0 0 0 0 0 0 0 0 0 0 0 0 0 0 0 0 0 0 0 0 0 0 0 0 0 0 0 0 0 0
0 0 0 0 0 0 0 0 0 0 0 0 0 0 0 0 0 0 0 0 0 0 0 0 0 0 0 0 0 0 0 0 0 0 0 0 0 0 0 0 0 0 0
0 0 0 0 0 0 0 0 0 0 0 0 0 0 0 0 0 0 0 0 0 0 0 0 0 0 0 0 0 0 0 0 0 0 0 0 0 0 0 0 0 0 0
0 0 0 0 0 0 0 0 0 0 0 0 0 0 0 0 0 0 0 0 0 0 0 0 0 0 0 0 0 0 0 0 0 0 0 0 0 0 0 0 0 0 0
0 0 0 0 0 0 0 0 0 0 0 0 0 0 0 0 0 0 0 0 0 0 0 0 0 0 0 0 0 0 0 0 0 0 0 0 0 0 0 0 0 0 0
0 0 0 0 0 0 0 0 0 0 0 0 0 0 0 0 0 0 0 0 0 0 0 0 0 0 0 0 0 0 0 0 0 0 0 0 0 0 0 0 0 0 0
0 0 0 0 0 0 0 0 0 0 0 0 0 0 0 0 0 0 0 0 0 0 0 0 0 0 0 0 0 0 0 0 0 0 0 0 0 0 0 0 0 0 0
Height
5690 5684 5679 5674 5668 5663 5657 5652 5647 5642 5636 5631 5626 5621 5616 5611 5606 5601 5596 5591 5585 5580 5574 5569 5564 5559 5554 5549 5544 5539 5534 5529 5525 5523 5516 5509 5502 5495 5489 5482 5475 5468 5460
5677 5672 5666 5660 5654 5648 5643 5637 5631 5626 5620 5615 5609 5604 5599 5594 5588 5583 5578 5572 5567 5562 5556 5551 5547 5541 5537 5532 5527 5522 5517 5511 5507 5504 5499 5491 5484 5476 5469 5462 5455 5447 5438
5665 5659 5653 5646 5640 5634 5628 5621 5615 5610 5604 5598 5592 5587 5582 5576 5571 5565 5560 5554 5549 5544 5538 5533 5529 5524 5520 5515 5509 5504 5499 5493 5489 5485 5481 5473 5465 5456 5449 5442 5434 5426 5417
5652 5646 5639 5632 5625 5619 5612 5606 5599 5593 5587 5582 5576 5571 5565 5559 5553 5547 5542 5537 5532 5527 5521 5517 5512 5507 5502 5497 5492 5487 5481 5476 5470 5465 5461 5455 5447 5437 5428 5422 5415 5406 5396
5639 5632 5624 5617 5610 5603 5596 5590 5583 5577 5571 5565 5559 5554 5548 5542 5536 5530 5524 5520 5515 5510 5505 5500 5495 5490 5485 5480 5474 5469 5463 5458 5452 5447 5442 5435 5428 5418 5409 5401 5394 5386 5377
5624 5616 5609 5602 5594 5587 5580 5573 5566 5560 5554 5548 5542 5536 5530 5524 5518 5513 5508 5504 5499 5494 5489 5484 5478 5473 5468 5462 5457 5451 5445 5440 5434 5428 5422 5416 5409 5399 5390 5382 5373 5365 5359
5608 5600 5592 5585 5578 5570 5563 5556 5549 5543 5536 5530 5524 5519 5514 5508 5501 5496 5491 5488 5484 5478 5472 5467 5462 5457 5451 5445 5439 5433 5428 5422 5416 5410 5405 5398 5390 5381 5372 5364 5354 5344 5337
5590 5582 5573 5566 5559 5552 5545 5538 5531 5525 5519 5513 5507 5502 5497 5491 5484 5479 5474 5471 5467 5462 5456 5450 5445 5440 5434 5428 5422 5417 5411 5404 5398 5391 5387 5380 5371 5362 5352 5344 5335 5327 5320
5571 5563 5555 5547 5540 5533 5526 5519 5513 5507 5501 5495 5490 5485 5480 5474 5468 5462 5457 5454 5450 5445 5440 5434 5429 5423 5417 5410 5406 5401 5395 5388 5380 5374 5369 5362 5353 5345 5335 5327 5318 5309 5303
5553 5545 5536 5528 5520 5514 5507 5501 5494 5489 5484 5478 5473 5467 5462 5457 5451 5446 5440 5437 5433 5428 5423 5418 5412 5406 5400 5393 5389 5385 5379 5373 5366 5360 5353 5346 5338 5329 5320 5311 5302 5294 5286
5534 5526 5517 5509 5501 5495 5489 5482 5476 5471 5466 5461 5456 5451 5445 5440 5435 5429 5424 5420 5415 5411 5406 5401 5395 5389 5383 5378 5373 5369 5364 5358 5352 5346 5339 5332 5324 5316 5308 5299 5290 5280 5272
5515 5507 5499 5491 5484 5477 5471 5465 5459 5453 5449 5444 5440 5435 5429 5424 5419 5413 5408 5403 5399 5394 5390 5384 5379 5373 5367 5362 5357 5353 5348 5343 5338 5332 5326 5319 5311 5304 5296 5287 5279 5269 5260
5497 5489 5481 5474 5467 5460 5454 5448 5443 5437 5433 5429 5424 5420 5415 5409 5404 5399 5393 5388 5383 5378 5374 5368 5363 5357 5352 5347 5343 5338 5333 5329 5324 5319 5313 5306 5299 5291 5284 5276 5268 5259 5251
5479 5472 5464 5458 5451 5445 5439 5433 5428 5423 5418 5414 5409 5405 5401 5395 5390 5385 5379 5373 5368 5362 5357 5352 5347 5342 5337 5333 5329 5324 5320 5316 5311 5306 5300 5294 5287 5280 5272 5265 5258 5250 5243
5463 5455 5448 5441 5435 5430 5425 5419 5414 5409 5404 5400 5396 5391 5387 5382 5376 5371 5365 5360 5354 5347 5341 5337 5332 5328 5324 5320 5316 5312 5307 5303 5298 5294 5288 5282 5276 5269 5262 5255 5248 5240 5233
5447 5441 5434 5427 5421 5416 5411 5407 5401 5396 5391 5386 5381 5377 5373 5368 5362 5357 5352 5346 5340 5333 5327 5322 5318 5314 5310 5307 5304 5300 5296 5292 5287 5282 5277 5271 5265 5259 5253 5246 5238 5232 5225
5432 5426 5420 5414 5408 5403 5398 5394 5390 5385 5379 5374 5369 5364 5359 5354 5349 5344 5338 5333 5327 5320 5315 5310 5306 5302 5299 5296 5293 5289 5286 5282 5277 5272 5267 5262 5256 5250 5243 5237 5230 5224 5218
5419 5413 5407 5401 5396 5391 5386 5382 5377 5373 5369 5363 5358 5352 5347 5342 5337 5331 5326 5321 5315 5309 5304 5300 5296 5293 5289 5286 5283 5280 5276 5272 5268 5263 5258 5252 5247 5241 5235 5229 5222 5217 5211
5407 5401 5395 5390 5384 5379 5375 5370 5366 5361 5357 5352 5347 5341 5335 5330 5325 5320 5314 5310 5304 5300 5295 5291 5288 5284 5280 5277 5274 5271 5267 5263 5259 5254 5249 5244 5238 5233 5227 5221 5216 5210 5205
5396 5390 5384 5379 5374 5369 5364 5360 5355 5350 5345 5340 5335 5329 5324 5319 5314 5309 5305 5300 5295 5291 5287 5283 5279 5276 5272 5269 5266 5263 5259 5255 5251 5246 5241 5236 5231 5225 5220 5215 5210 5205 5200
5385 5380 5374 5369 5364 5359 5354 5349 5345 5339 5334 5329 5323 5318 5313 5309 5305 5300 5295 5291 5287 5283 5279 5275 5272 5268 5265 5262 5259 5255 5252 5248 5243 5239 5234 5229 5224 5219 5214 5209 5204 5200 5196
5375 5370 5365 5360 5355 5350 5345 5340 5334 5329 5323 5318 5313 5308 5303 5299 5295 5291 5287 5283 5279 5275 5272 5268 5265 5261 5258 5255 5252 5249 5245 5241 5237 5232 5227 5223 5218 5213 5208 5204 5200 5196 5192
5365 5360 5355 5351 5346 5341 5336 5330 5325 5319 5314 5309 5304 5300 5295 5291 5287 5283 5280 5276 5273 5269 5265 5262 5258 5255 5252 5249 5246 5243 5239 5235 5230 5226 5222 5217 5213 5208 5203 5199 5196 5192 5189
5356 5351 5347 5342 5337 5332 5327 5322 5316 5311 5306 5301 5296 5292 5288 5284 5280 5277 5274 5271 5267 5263 5260 5256 5253 5250 5247 5244 5240 5237 5233 5229 5225 5221 5216 5212 5208 5203 5199 5195 5192 5189 5187
5348 5343 5338 5334 5329 5324 5319 5314 5309 5303 5298 5294 5289 5285 5281 5278 5275 5271 5268 5265 5262 5259 5255 5252 5249 5246 5242 5239 5236 5232 5228 5224 5220 5216 5212 5208 5203 5199 5195 5192 5189 5186 5184
5340 5335 5331 5327 5322 5317 5312 5307 5302 5297 5292 5287 5283 5279 5275 5272 5269 5266 5263 5260 5257 5255 5252 5248 5245 5242 5238 5235 5232 5228 5224 5220 5216 5212 5208 5204 5200 5196 5192 5188 5186 5184 5182
Wind_Speed
49 51 53 55 57 59 60 61 62 63 64 65 66 67 67 68 68 69 70 71 71 71 71 71 69 68 66 65 65 65 65 65 65 63 64 65 67 69 70 71 71 71 72
49 51 52 54 56 57 59 60 61 62 64 65 66 67 68 68 69 69 70 70 70 70 70 69 67 65 63 64 64 65 65 66 66 64 64 66 68 69 70 70 71 71 72
50 51 52 54 55 56 57 58 60 61 62 63 65 65 66 67 67 67 68 68 68 67 66 64 63 62 62 63 64 64 65 66 66 65 65 67 68 69 70 70 70 70 71
52 53 54 56 56 57 58 59 60 60 61 61 62 63 64 65 65 65 65 65 64 63 62 61 61 61 61 62 63 63 64 65 65 65 66 66 66 67 69 69 69 69 69
56 57 58 58 59 59 59 59 59 60 60 61 62 62 63 63 63 63 62 62 61 61 60 59 60 60 60 62 62 62 64 64 65 65 65 65 65 66 67 68 68 68 67
60 60 61 61 61 61 61 60 60 61 61 61 61 61 61 60 60 60 60 60 60 59 58 58 58 59 59 61 62 63 64 64 63 64 64 63 64 65 66 67 67 67 65
64 64 64 64 64 63 63 62 62 62 62 61 60 60 59 59 60 60 60 59 58 58 58 58 57 58 59 60 61 62 62 61 61 62 62 62 63 63 65 64 64 64 62
66 66 66 66 65 65 64 64 63 62 61 60 60 59 59 59 59 59 60 59 58 57 57 57 57 57 58 58 59 60 60 59 60 61 61 61 61 61 62 62 62 61 59
69 68 67 67 66 65 65 64 63 61 60 59 58 58 57 57 58 59 59 59 57 56 56 56 56 57 57 58 58 58 57 57 59 59 59 58 58 58 59 59 59 59 56
69 68 67 67 66 65 64 63 62 60 59 58 57 57 57 56 57 57 57 56 56 55 55 55 55 55 56 56 56 55 54 55 56 56 56 56 55 55 55 55 56 56 54
69 67 66 66 65 64 62 61 59 58 57 56 55 54 54 53 53 54 54 54 53 54 54 53 53 54 54 54 53 52 52 52 53 53 52 52 51 51 51 50 51 52 51
67 66 64 63 62 61 59 58 57 55 54 52 51 50 50 50 50 51 51 51 51 51 52 52 53 53 52 51 50 50 50 50 50 50 49 49 48 48 47 47 48 47 48
65 63 62 60 59 58 56 54 52 51 49 48 47 47 47 48 48 48 48 49 50 51 51 51 51 50 49 48 47 47 47 48 47 47 47 46 46 45 44 44 44 44 43
62 61 60 58 56 54 52 51 49 48 46 45 45 44 45 45 46 46 47 48 49 50 50 50 48 47 46 45 44 44 45 45 44 44 44 43 43 42 42 42 41 40 38
60 58 56 54 52 49 48 47 46 44 44 43 43 43 43 44 45 45 46 47 48 49 49 47 45 43 42 41 41 41 42 42 41 41 41 41 40 40 39 40 39 37 36
56 54 52 49 47 45 44 43 43 42 42 42 43 43 43 44 44 44 45 46 46 47 45 43 41 40 39 38 38 38 38 38 39 39 39 39 38 37 37 37 37 34 33
52 50 48 46 44 42 41 40 39 39 40 41 42 43 43 43 43 43 44 45 44 43 40 38 36 35 35 34 35 35 35 36 36 36 36 36 35 35 35 34 34 32 31
49 47 45 43 41 40 39 38 38 38 38 39 41 42 43 43 42 43 43 42 40 38 35 33 32 32 32 32 32 33 33 33 34 34 34 33 33 33 32 32 31 30 28
46 44 42 40 39 38 38 38 38 38 38 39 40 42 42 41 41 40 39 38 36 33 32 30 30 30 30 30 29 30 31 31 31 31 31 31 31 31 30 30 29 27 26
42 41 40 38 37 37 37 37 37 38 39 40 40 40 39 37 36 36 36 35 33 31 30 29 29 29 28 27 27 28 28 29 29 29 29 29 29 28 28 28 26 25 24
40 38 38 37 36 36 37 37 38 39 39 39 38 37 36 35 35 34 33 32 30 29 28 28 28 27 26 25 25 26 26 27 27 27 28 27 27 27 27 26 24 23 22
39 38 37 36 36 36 37 38 39 39 38 37 36 34 34 33 32 31 30 29 28 27 27 27 26 24 23 23 24 24 25 25 26 26 26 25 25 25 25 24 22 21 20
38 37 36 35 35 36 36 37 38 37 36 35 32 31 31 31 29 28 27 26 25 25 25 25 23 22 22 22 22 22 23 24 24 24 24 24 24 24 23 21 20 19 18
37 36 35 34 35 35 36 36 35 35 34 32 30 29 28 27 26 25 25 24 24 24 23 22 20 20 20 20 20 21 21 22 22 23 23 22 22 21 21 20 19 17 16
35 34 33 33 34 34 35 34 34 33 31 29 28 27 26 25 25 24 23 22 22 21 20 19 19 18 18 18 19 19 20 21 21 21 20 20 20 20 20 19 17 15 14
34 32 32 32 33 33 33 33 31 30 28 27 26 25 24 23 22 21 20 19 19 18 17 17 17 17 16 17 17 18 19 20 20 19 19 19 20 20 20 17 15 13 12
Wind_Direction
292 291 289 288 287 287 286 285 285 284 284 284 285 285 286 287 288 289 290 291 291 292 292 292 292 292 292 292 292 292 292 292 292 292 293 295 296 296 296 297 297 297 297
299 297 295 294 292 291 290 288 288 287 286 286 286 286 287 288 289 289 290 290 291 291 291 291 291 291 290 291 291 291 292 292 292 293 294 295 296 296 297 298 298 298 298
304 301 300 298 297 296 294 293 291 290 289 288 288 288 288 289 289 290 290 290 290 291 291 291 290 290 291 291 291 292 292 292 293 293 294 295 296 297 297 298 299 299 299
307 305 303 302 300 299 298 297 295 293 292 291 290 290 290 290 290 290 290 290 290 291 291 291 291 291 291 291 291 292 292 293 294 294 295 296 297 297 297 298 299 300 300
307 306 305 304 302 301 300 299 297 295 293 292 292 291 291 291 290 289 290 291 291 291 291 291 291 291 292 292 292 292 293 293 294 295 296 297 297 297 297 299 300 301 302
306 305 304 303 302 301 301 299 298 296 294 293 293 292 292 291 290 290 290 291 292 292 292 292 292 292 292 293 293 294 294 294 294 295 296 297 297 297 298 299 301 302 303
306 305 303 302 302 301 300 299 298 296 295 293 292 292 292 291 290 290 290 290 291 292 293 293 293 293 293 294 294 294 295 295 295 295 296 297 298 298 299 300 302 303 306
305 305 304 303 302 301 300 299 298 297 296 294 292 292 291 291 290 291 291 291 292 293 293 293 293 294 294 294 294 295 295 295 295 295 297 298 299 299 301 302 303 304 307
305 304 303 303 302 301 300 299 298 296 295 294 293 292 292 291 291 292 292 292 292 293 293 294 294 293 293 293 294 295 295 295 295 296 298 299 300 300 301 303 304 306 309
305 304 303 303 302 301 301 299 297 296 295 294 293 293 293 293 293 293 293 293 293 293 294 294 294 294 293 293 294 295 295 295 295 296 298 299 300 301 302 304 306 308 310
305 304 303 303 302 302 301 299 297 296 296 295 295 295 295 294 294 294 294 295 295 295 295 295 295 294 294 294 294 295 295 295 296 297 297 298 299 300 302 304 306 308 311
304 304 303 302 301 301 301 300 298 297 297 296 296 296 296 296 296 296 296 296 296 297 296 296 296 295 295 295 294 294 294 295 296 297 297 298 299 301 303 305 307 309 312
304 303 302 301 301 301 301 301 300 299 299 298 298 298 297 298 298 298 297 298 298 298 298 298 297 296 295 294 294 293 294 295 296 297 298 299 301 302 304 306 308 311 313
304 303 302 302 301 301 301 301 302 301 300 299 300 300 300 300 300 300 300 300 300 300 300 300 298 296 295 294 293 293 294 295 296 297 298 300 302 304 305 307 310 311 312
305 305 304 303 303 302 301 301 302 302 302 302 302 302 302 302 302 302 302 302 302 302 301 300 299 297 295 293 292 293 294 295 296 298 299 301 303 305 307 309 311 311 312
307 307 307 306 304 303 303 303 302 303 303 304 305 305 305 304 304 304 304 304 305 305 303 301 298 296 294 293 293 293 294 295 297 298 300 303 305 307 309 310 312 312 312
308 308 308 308 307 306 305 305 304 304 305 305 306 306 306 306 305 305 305 306 307 306 305 302 299 297 295 294 294 294 294 296 297 300 302 304 307 309 311 312 312 312 313
310 310 310 309 308 307 307 307 307 306 306 306 306 307 307 307 306 306 306 307 308 307 305 304 301 299 297 295 294 295 295 297 299 302 304 307 309 311 313 314 314 312 313
312 312 312 311 310 309 309 308 308 308 308 308 307 307 308 307 307 307 308 308 309 307 306 304 302 300 299 296 295 296 296 299 301 304 306 309 311 313 315 316 316 314 315
313 313 312 312 311 311 311 310 310 311 311 310 309 309 309 308 308 308 309 310 309 307 306 304 301 300 299 297 297 297 299 302 304 307 309 311 313 315 316 317 317 316 316
314 313 312 312 312 312 313 313 313 313 313 312 311 309 309 309 308 309 309 310 309 308 307 305 303 302 300 298 299 300 302 305 307 309 312 314 315 317 318 318 318 318 318
315 314 313 313 312 313 314 315 315 315 314 314 312 310 310 311 309 309 310 310 310 308 308 307 305 303 301 301 302 303 306 308 310 313 315 316 317 319 319 319 319 320 320
315 314 314 314 314 315 316 316 317 316 315 314 313 312 312 312 311 310 310 310 311 311 310 310 306 304 304 304 305 307 310 312 314 317 317 318 319 321 322 322 321 322 323
315 315 315 315 315 316 317 318 318 318 317 316 315 314 314 314 313 312 311 311 311 313 313 312 309 307 307 308 310 312 315 316 318 320 321 322 323 325 325 324 322 321 322
315 315 315 316 317 318 319 320 320 319 319 318 317 315 314 313 313 312 311 311 312 313 314 314 314 313 312 314 316 318 320 322 324 325 326 327 327 327 327 325 322 321 322
315 315 316 317 319 320 321 321 321 320 320 320 318 317 315 314 314 313 313 313 313 314 316 318 319 318 319 321 323 324 327 329 330 331 331 331 331 330 329 327 325 323 324